GLO1861 SBVT-SBGL

Flight info

Callsign GLO1861
Flight time 0h 49m
Altitude 36000
Route USVAG UN401 MOLSU
Aircraft B38M/M-DFGHIJ4J7KLORWXY/LB1

Departure

Time 2026-05-09 00:05
Airport Eurico de Aguiar Salles International Airport (SBVT)

Arrival

Time 2026-05-09 00:55
Airport Rio Galeão – Tom Jobim International Airport (SBGL)
Time Latitude Longitude Altitude Speed Heading
2026-05-08 23:50 -20.26498 -40.28173 35 ft 0 kts 262°
2026-05-08 23:58 -20.26495 -40.28156 35 ft 4 kts 256°
2026-05-08 23:58 -20.26489 -40.28129 35 ft 4 kts 244°
2026-05-08 23:58 -20.26473 -40.28111 35 ft 4 kts 198°
2026-05-08 23:58 -20.26453 -40.28109 34 ft 1 kts 172°
2026-05-08 23:59 -20.26449 -40.28109 33 ft 0 kts 172°
2026-05-09 00:02 -20.26450 -40.28109 37 ft 1 kts 172°
2026-05-09 00:02 -20.26468 -40.28107 37 ft 4 kts 172°
2026-05-09 00:02 -20.26513 -40.28100 37 ft 9 kts 172°
2026-05-09 00:03 -20.26585 -40.28089 37 ft 13 kts 172°
2026-05-09 00:03 -20.26639 -40.28040 37 ft 10 kts 74°
2026-05-09 00:03 -20.26613 -40.27976 40 ft 7 kts 72°
2026-05-09 00:03 -20.26604 -40.27926 40 ft 8 kts 80°
2026-05-09 00:04 -20.26589 -40.27860 39 ft 9 kts 54°
2026-05-09 00:04 -20.26555 -40.27853 40 ft 0 kts 353°
2026-05-09 00:04 -20.26518 -40.27858 40 ft 30 kts 352°
2026-05-09 00:04 -20.26049 -40.27927 37 ft 104 kts 352°
2026-05-09 00:05 -20.25121 -40.28065 31 ft 164 kts 352°
2026-05-09 00:05 -20.23913 -40.28248 479 ft 180 kts 354°
2026-05-09 00:05 -20.22641 -40.28376 1184 ft 189 kts
2026-05-09 00:05 -20.21318 -40.27931 1665 ft 215 kts 35°
2026-05-09 00:06 -20.20318 -40.26760 2653 ft 215 kts 53°
2026-05-09 00:06 -20.19418 -40.25507 3666 ft 212 kts 45°
2026-05-09 00:06 -20.18399 -40.24394 4705 ft 208 kts 43°
2026-05-09 00:06 -20.17378 -40.23284 5570 ft 213 kts 44°
2026-05-09 00:07 -20.16205 -40.22260 6243 ft 227 kts 27°
2026-05-09 00:07 -20.14610 -40.21915 6718 ft 249 kts 355°
2026-05-09 00:07 -20.12974 -40.22643 6843 ft 265 kts 322°
2026-05-09 00:07 -20.11951 -40.24294 6921 ft 277 kts 290°
2026-05-09 00:08 -20.11463 -40.26305 7018 ft 283 kts 290°
2026-05-09 00:08 -20.10872 -40.28305 7073 ft 284 kts 291°
2026-05-09 00:08 -20.10253 -40.30301 7087 ft 284 kts 292°
2026-05-09 00:08 -20.09620 -40.32297 7106 ft 284 kts 292°
2026-05-09 00:09 -20.08979 -40.34286 7108 ft 284 kts 292°
2026-05-09 00:09 -20.08362 -40.36285 7134 ft 288 kts 285°
2026-05-09 00:09 -20.08401 -40.38411 7812 ft 292 kts 257°
2026-05-09 00:09 -20.09299 -40.40373 8687 ft 302 kts 233°
2026-05-09 00:10 -20.10888 -40.41850 9600 ft 306 kts 213°
2026-05-09 00:10 -20.12697 -40.43093 10380 ft 314 kts 214°
2026-05-09 00:10 -20.14571 -40.44391 10862 ft 331 kts 213°
2026-05-09 00:10 -20.16547 -40.45749 11401 ft 344 kts 213°
2026-05-09 00:11 -20.18564 -40.47129 12226 ft 345 kts 213°
2026-05-09 00:11 -20.20597 -40.48520 13019 ft 350 kts 213°
2026-05-09 00:11 -20.22660 -40.49930 13807 ft 354 kts 213°
2026-05-09 00:11 -20.24741 -40.51353 14525 ft 357 kts 213°
2026-05-09 00:12 -20.26845 -40.52792 15230 ft 361 kts 213°
2026-05-09 00:12 -20.28961 -40.54240 15942 ft 364 kts 213°
2026-05-09 00:12 -20.31067 -40.55682 16627 ft 367 kts 213°
2026-05-09 00:12 -20.33221 -40.57157 17327 ft 370 kts 213°
2026-05-09 00:13 -20.35395 -40.58646 17976 ft 373 kts 213°
2026-05-09 00:13 -20.37589 -40.60150 18573 ft 377 kts 213°
2026-05-09 00:13 -20.39804 -40.61668 19129 ft 379 kts 213°
2026-05-09 00:13 -20.42030 -40.63194 19709 ft 381 kts 213°
2026-05-09 00:14 -20.44262 -40.64726 20272 ft 383 kts 213°
2026-05-09 00:14 -20.46510 -40.66268 20846 ft 385 kts 213°
2026-05-09 00:14 -20.48765 -40.67816 21420 ft 386 kts 213°
2026-05-09 00:14 -20.51018 -40.69362 21988 ft 387 kts 213°
2026-05-09 00:15 -20.53284 -40.70920 22540 ft 389 kts 214°
2026-05-09 00:15 -20.55565 -40.72487 23072 ft 391 kts 214°
2026-05-09 00:15 -20.57857 -40.74062 23648 ft 392 kts 213°
2026-05-09 00:15 -20.60161 -40.75646 24077 ft 394 kts 213°
2026-05-09 00:16 -20.61687 -40.76696 24380 ft 395 kts 213°
2026-05-09 00:16 -20.64004 -40.78290 24825 ft 397 kts 213°
2026-05-09 00:16 -20.66328 -40.79891 25272 ft 398 kts 214°
2026-05-09 00:16 -20.69397 -40.82129 25794 ft 401 kts 223°
2026-05-09 00:17 -20.70667 -40.83557 26083 ft 401 kts 230°
2026-05-09 00:17 -20.72532 -40.85770 26445 ft 404 kts 228°
2026-05-09 00:17 -20.74428 -40.87997 26851 ft 406 kts 228°
2026-05-09 00:17 -20.76324 -40.90245 27243 ft 408 kts 229°
2026-05-09 00:18 -20.78220 -40.92506 27650 ft 410 kts 229°
2026-05-09 00:18 -20.80124 -40.94780 28033 ft 412 kts 229°
2026-05-09 00:18 -20.82041 -40.97072 28430 ft 414 kts 229°
2026-05-09 00:18 -20.83962 -40.99371 28815 ft 416 kts 229°
2026-05-09 00:19 -20.85890 -41.01678 29191 ft 417 kts 229°
2026-05-09 00:19 -20.87829 -41.04002 29563 ft 419 kts 229°
2026-05-09 00:19 -20.89767 -41.06323 29942 ft 421 kts 229°
2026-05-09 00:19 -20.91721 -41.08665 30277 ft 423 kts 229°
2026-05-09 00:20 -20.93680 -41.11015 30592 ft 424 kts 229°
2026-05-09 00:20 -20.95649 -41.13379 30868 ft 427 kts 229°
2026-05-09 00:20 -20.97628 -41.15754 31154 ft 429 kts 229°
2026-05-09 00:20 -20.99618 -41.18143 31428 ft 431 kts 229°
2026-05-09 00:21 -21.01618 -41.20546 31716 ft 433 kts 229°
2026-05-09 00:21 -21.03627 -41.22961 31974 ft 436 kts 229°
2026-05-09 00:21 -21.05639 -41.25380 32243 ft 438 kts 229°
2026-05-09 00:21 -21.07643 -41.27790 32511 ft 440 kts 229°
2026-05-09 00:22 -21.09683 -41.30245 32797 ft 442 kts 229°
2026-05-09 00:22 -21.11728 -41.32708 33099 ft 443 kts 229°
2026-05-09 00:22 -21.13776 -41.35175 33468 ft 443 kts 229°
2026-05-09 00:22 -21.15817 -41.37635 33867 ft 442 kts 229°
2026-05-09 00:23 -21.17861 -41.40100 34227 ft 441 kts 230°
2026-05-09 00:23 -21.19892 -41.42549 34578 ft 439 kts 230°
2026-05-09 00:23 -21.21909 -41.44982 34940 ft 437 kts 230°
2026-05-09 00:23 -21.23923 -41.47414 35291 ft 435 kts 230°
2026-05-09 00:24 -21.25930 -41.49838 35633 ft 433 kts 230°
2026-05-09 00:24 -21.27926 -41.52249 35964 ft 432 kts 230°
2026-05-09 00:24 -21.29909 -41.54649 36077 ft 432 kts 230°
2026-05-09 00:25 -21.33862 -41.59434 36066 ft 427 kts 230°
2026-05-09 00:25 -21.37791 -41.64195 36059 ft 427 kts 230°
2026-05-09 00:26 -21.41725 -41.68966 36051 ft 427 kts 230°
2026-05-09 00:26 -21.45661 -41.73743 36064 ft 427 kts 230°
2026-05-09 00:27 -21.49569 -41.78491 36059 ft 427 kts 230°
2026-05-09 00:27 -21.53494 -41.83264 36064 ft 426 kts 230°
2026-05-09 00:28 -21.57405 -41.88024 36061 ft 426 kts 230°
2026-05-09 00:28 -21.61321 -41.92794 36064 ft 426 kts 230°
2026-05-09 00:29 -21.65240 -41.97573 36068 ft 426 kts 230°
2026-05-09 00:29 -21.69155 -42.02349 36063 ft 425 kts 230°
2026-05-09 00:29 -21.71099 -42.04723 35929 ft 422 kts 231°
2026-05-09 00:30 -21.73023 -42.07073 35540 ft 416 kts 231°
2026-05-09 00:30 -21.74916 -42.09388 35189 ft 409 kts 231°
2026-05-09 00:30 -21.76785 -42.11672 34757 ft 405 kts 231°
2026-05-09 00:30 -21.78642 -42.13943 34268 ft 404 kts 230°
2026-05-09 00:31 -21.80498 -42.16214 33689 ft 403 kts 230°
2026-05-09 00:31 -21.82344 -42.18474 33133 ft 402 kts 230°
2026-05-09 00:31 -21.84360 -42.20555 32591 ft 403 kts 217°
2026-05-09 00:31 -21.86786 -42.22078 32073 ft 403 kts 213°
2026-05-09 00:32 -21.89193 -42.23576 31649 ft 399 kts 213°
2026-05-09 00:32 -21.91595 -42.25056 31208 ft 397 kts 212°
2026-05-09 00:32 -21.93985 -42.26512 30749 ft 396 kts 212°
2026-05-09 00:32 -21.96385 -42.27965 30275 ft 395 kts 212°
2026-05-09 00:33 -21.98781 -42.29415 29755 ft 395 kts 212°
2026-05-09 00:33 -22.01171 -42.30861 29236 ft 393 kts 212°
2026-05-09 00:33 -22.03552 -42.32300 28798 ft 390 kts 212°
2026-05-09 00:33 -22.05910 -42.33727 28370 ft 388 kts 212°
2026-05-09 00:34 -22.08206 -42.35233 27862 ft 384 kts 221°
2026-05-09 00:34 -22.10000 -42.37323 27330 ft 379 kts 240°
2026-05-09 00:34 -22.11057 -42.39878 26941 ft 373 kts 255°
2026-05-09 00:34 -22.11786 -42.42546 26543 ft 370 kts 255°
2026-05-09 00:35 -22.12489 -42.45225 26063 ft 371 kts 256°
2026-05-09 00:35 -22.13167 -42.47907 25594 ft 371 kts 256°
2026-05-09 00:35 -22.13833 -42.50603 25134 ft 372 kts 257°
2026-05-09 00:35 -22.14490 -42.53302 24664 ft 373 kts 257°
2026-05-09 00:36 -22.15147 -42.56019 24189 ft 375 kts 257°
2026-05-09 00:36 -22.15804 -42.58745 23719 ft 375 kts 257°
2026-05-09 00:36 -22.16452 -42.61439 23177 ft 367 kts 257°
2026-05-09 00:36 -22.17084 -42.64067 22707 ft 358 kts 258°
2026-05-09 00:37 -22.17701 -42.66635 22249 ft 350 kts 258°
2026-05-09 00:37 -22.18309 -42.69169 21807 ft 348 kts 258°
2026-05-09 00:37 -22.18915 -42.71695 21375 ft 347 kts 258°
2026-05-09 00:37 -22.19518 -42.74213 20945 ft 346 kts 258°
2026-05-09 00:38 -22.20117 -42.76713 20509 ft 343 kts 258°
2026-05-09 00:38 -22.20713 -42.79206 20078 ft 342 kts 258°
2026-05-09 00:38 -22.21307 -42.81690 19656 ft 343 kts 258°
2026-05-09 00:38 -22.21903 -42.84185 19224 ft 344 kts 258°
2026-05-09 00:39 -22.22487 -42.86630 19060 ft 336 kts 258°
2026-05-09 00:39 -22.23063 -42.89045 19100 ft 330 kts 258°
2026-05-09 00:39 -22.23630 -42.91425 19087 ft 329 kts 258°
2026-05-09 00:39 -22.24199 -42.93815 19084 ft 328 kts 258°
2026-05-09 00:40 -22.24767 -42.96196 19088 ft 328 kts 258°
2026-05-09 00:40 -22.25335 -42.98586 19085 ft 328 kts 258°
2026-05-09 00:40 -22.25922 -43.00946 18864 ft 329 kts 253°
2026-05-09 00:41 -22.27725 -43.05522 17545 ft 330 kts 249°
2026-05-09 00:41 -22.28600 -43.07808 16914 ft 329 kts 250°
2026-05-09 00:41 -22.29464 -43.10096 16293 ft 329 kts 250°
2026-05-09 00:41 -22.30321 -43.12383 15686 ft 328 kts 250°
2026-05-09 00:42 -22.31169 -43.14659 15092 ft 327 kts 250°
2026-05-09 00:42 -22.32009 -43.16917 14601 ft 322 kts 250°
2026-05-09 00:42 -22.32836 -43.19143 14201 ft 315 kts 250°
2026-05-09 00:42 -22.33640 -43.21309 13870 ft 309 kts 250°
2026-05-09 00:43 -22.34436 -43.23458 13516 ft 308 kts 250°
2026-05-09 00:43 -22.35231 -43.25602 13163 ft 307 kts 251°
2026-05-09 00:43 -22.36021 -43.27735 12843 ft 305 kts 251°
2026-05-09 00:43 -22.36807 -43.29856 12509 ft 303 kts 251°
2026-05-09 00:44 -22.37579 -43.31942 12181 ft 294 kts 251°
2026-05-09 00:44 -22.38336 -43.33987 11901 ft 295 kts 251°
2026-05-09 00:44 -22.39102 -43.36059 11582 ft 300 kts 251°
2026-05-09 00:44 -22.39881 -43.38165 11257 ft 302 kts 251°
2026-05-09 00:45 -22.40656 -43.40260 10947 ft 300 kts 251°
2026-05-09 00:45 -22.41419 -43.42323 10652 ft 291 kts 251°
2026-05-09 00:45 -22.42144 -43.44278 10519 ft 277 kts 252°
2026-05-09 00:45 -22.43157 -43.46069 10157 ft 283 kts 229°
2026-05-09 00:46 -22.44775 -43.47356 9645 ft 295 kts 214°
2026-05-09 00:46 -22.46435 -43.48617 9080 ft 297 kts 221°
2026-05-09 00:46 -22.48080 -43.49971 8520 ft 298 kts 221°
2026-05-09 00:46 -22.49738 -43.51324 7956 ft 299 kts 221°
2026-05-09 00:47 -22.51390 -43.52664 7514 ft 294 kts 221°
2026-05-09 00:47 -22.53003 -43.53968 7214 ft 284 kts 221°
2026-05-09 00:47 -22.54572 -43.55164 7141 ft 271 kts 211°
2026-05-09 00:47 -22.56373 -43.55648 7072 ft 267 kts 180°
2026-05-09 00:48 -22.58127 -43.55176 7057 ft 255 kts 155°
2026-05-09 00:48 -22.59687 -43.54374 6903 ft 243 kts 155°
2026-05-09 00:48 -22.61204 -43.53594 6723 ft 240 kts 155°
2026-05-09 00:48 -22.62699 -43.52821 6507 ft 235 kts 155°
2026-05-09 00:49 -22.64087 -43.51927 6285 ft 233 kts 135°
2026-05-09 00:49 -22.65111 -43.50576 5963 ft 231 kts 126°
2026-05-09 00:49 -22.66104 -43.49188 5512 ft 236 kts 126°
2026-05-09 00:49 -22.67087 -43.47772 5016 ft 239 kts 124°
2026-05-09 00:50 -22.68077 -43.46302 4465 ft 240 kts 123°
2026-05-09 00:50 -22.69042 -43.44846 4025 ft 236 kts 122°
2026-05-09 00:50 -22.69970 -43.43439 3655 ft 229 kts 121°
2026-05-09 00:50 -22.70879 -43.42064 3368 ft 220 kts 122°
2026-05-09 00:51 -22.71756 -43.40737 3077 ft 213 kts 122°
2026-05-09 00:51 -22.72587 -43.39479 2831 ft 196 kts 122°
2026-05-09 00:51 -22.73349 -43.38326 2580 ft 181 kts 122°
2026-05-09 00:51 -22.74071 -43.37233 2346 ft 173 kts 121°
2026-05-09 00:52 -22.74751 -43.36202 2167 ft 165 kts 121°
2026-05-09 00:52 -22.75415 -43.35196 1942 ft 163 kts 122°
2026-05-09 00:52 -22.76067 -43.34210 1718 ft 161 kts 121°
2026-05-09 00:52 -22.76716 -43.33225 1509 ft 160 kts 122°
2026-05-09 00:53 -22.77361 -43.32248 1300 ft 159 kts 122°
2026-05-09 00:53 -22.78001 -43.31279 1090 ft 158 kts 122°
2026-05-09 00:53 -22.78633 -43.30320 896 ft 156 kts 123°
2026-05-09 00:53 -22.79257 -43.29374 713 ft 154 kts 124°
2026-05-09 00:54 -22.79880 -43.28432 536 ft 152 kts 124°
2026-05-09 00:54 -22.80488 -43.27495 313 ft 151 kts 124°
2026-05-09 00:54 -22.81098 -43.26583 116 ft 148 kts 124°
2026-05-09 00:54 -22.81666 -43.25724 30 ft 132 kts 126°
2026-05-09 00:55 -22.82085 -43.25096 26 ft 70 kts 126°
2026-05-09 00:55 -22.82280 -43.24806 22 ft 39 kts 126°
2026-05-09 00:55 -22.82343 -43.24654 24 ft 15 kts 106°
2026-05-09 00:55 -22.82364 -43.24547 22 ft 14 kts 98°
2026-05-09 00:56 -22.82340 -43.24459 22 ft 12 kts 359°
2026-05-09 00:56 -22.82290 -43.24513 22 ft 10 kts 307°
2026-05-09 00:56 -22.82244 -43.24583 23 ft 12 kts 306°
2026-05-09 00:56 -22.82189 -43.24666 21 ft 15 kts 306°
2026-05-09 00:57 -22.82112 -43.24732 24 ft 13 kts 16°
2026-05-09 00:57 -22.82030 -43.24670 27 ft 15 kts 34°
2026-05-09 00:57 -22.81942 -43.24609 26 ft 15 kts 12°
2026-05-09 00:57 -22.81844 -43.24577 28 ft 16 kts 35°
2026-05-09 00:58 -22.81750 -43.24573 24 ft 14 kts 328°
2026-05-09 00:58 -22.81683 -43.24652 26 ft 14 kts 305°
2026-05-09 00:58 -22.81639 -43.24710 24 ft 7 kts 345°
2026-05-09 00:58 -22.81617 -43.24703 24 ft 4 kts 28°
2026-05-09 00:59 -22.81593 -43.24691 26 ft 3 kts 25°
2026-05-09 00:59 -22.81591 -43.24689 26 ft 0 kts 25°